Simultaneous Nadir Overpasses (SNOs) Predictions

Prediction of SNOs between GOES-17 and AQUA Satellite Orbit:

Table of predicted SNOs for the next 14.0 days since TLE Epoch: 10/29/2022
Index Date Time (GOES-17) GOES-17 Lat,Lon AQUA Lat,Lon Distance(km) Time Diff (sec)
1 10/30/2022 22:38:51 -0.03,-137.32 0.65,-134.07 368.65 80
2 10/31/2022 10:57:16 0.02,-137.32 0.42,-139.19 211.96 80
3 11/02/2022 10:47:03 0.02,-137.31 -0.24,-136.05 143.15 80
4 11/02/2022 23:05:36 -0.01,-137.30 -0.88,-141.19 443.09 80
5 11/04/2022 10:34:10 0.02,-137.29 -0.93,-132.92 498.42 80
6 11/04/2022 22:52:43 -0.01,-137.28 -0.18,-138.05 87.77 80
7 11/06/2022 22:42:29 -0.02,-137.27 0.48,-134.91 267.47 80
8 11/07/2022 11:00:53 0.01,-137.27 0.57,-140.03 313.12 80
9 11/09/2022 10:50:38 0.01,-137.24 -0.06,-136.88 41.53 80
10 11/11/2022 10:37:44 0.01,-137.21 -0.71,-133.73 395.53 80
11 11/11/2022 22:56:16 -0.01,-137.19 -0.38,-138.87 191.10 80
